Flag for South Korea Weather past 2 weeks in Cheongju, South Korea

Now
28 °F

Sunny.


Feels Like: 23 °F
Forecast: 17 / 40 °F
Wind: 5 mph from Northwest

Location: Chongju Ab

Current Time: Jan 28, 2015 at 1:28:02 PM

Latest Report: Jan 28, 2015 at 1:00 PM


Visibility: 10 mi

Pressure: 30.39 "Hg

Humidity: 47%

Dew point: 10 °F

Location of CheongjuLocation

Historic Weather in Cheongju — Graph

°F

Cheongju temperature yesterday

Maximum temperature yesterday: 34 °F (at 5:00 AM)
Minimum temperature yesterday: 21 °F (at 9:00 PM)
Average temperature yesterday: 29 °F

Past Weeks' High & Low Weather Summary

 TemperatureHumidityPressure
High48 °F (Jan 15, 4:00 PM)100% (Jan 22, 3:00 AM)30.57 "Hg (Jan 22, 3:00 AM)
Low12 °F (Jan 18, 4:00 AM)29% (Jan 15, 4:00 PM)30.04 "Hg (Jan 18, 8:00 PM)
Average33 °F74%30.24 "Hg
* Reported Jan 13 12:00 Noon — Jan 28 12:00 Noon, Cheongju, Weather by CustomWeather, © 2014

Note: Actual official high and low records may vary slightly from our data, if they occured in-between our weather recording intervals... More about our weather records

Advertising

Cheongju weather history for previous 24 hours

 ConditionsComfort  
Time TempWeatherWind HumidityBarometerVisibility
12:00 PM
Jan 28
27 °FSunny.5 mph50%30.39 "Hg10 mi
11:00 AM23 °FSunny.2 mph58%30.42 "Hg10 mi
10:00 AM21 °FSunny.2 mph63%30.42 "Hg10 mi
9:00 AM19 °FSunny.1 mph73%30.42 "Hg10 mi
8:00 AM18 °FSunny.1 mph79%30.39 "Hg10 mi
7:00 AM18 °FClear.2 mph73%30.39 "Hg10 mi
6:00 AM18 °FClear.2 mph68%30.39 "Hg10 mi
5:00 AM18 °FClear.5 mph68%30.36 "Hg10 mi
3:00 AM18 °FClear.2 mph73%30.36 "HgN/A
1:00 AM18 °FClear.5 mph79%30.34 "HgN/A
11:00 PM
Jan 27
21 °FClear.5 mph74%30.33 "Hg10 mi
10:00 PM21 °FClear.5 mph74%30.30 "Hg10 mi
9:00 PM21 °FClear.3 mph68%30.30 "Hg10 mi
8:00 PM23 °FClear.2 mph63%30.27 "Hg10 mi
7:00 PM27 °FClear.8 mph59%30.27 "Hg10 mi
6:00 PM28 °FClear.9 mph47%30.27 "Hg10 mi
5:00 PM32 °FSunny.10 mph44%30.24 "Hg10 mi
4:00 PM32 °FPassing clouds.9 mph40%30.24 "HgN/A
3:00 PM34 °FPassing clouds.9 mph44%30.24 "HgN/A
2:00 PM34 °FPassing clouds.10 mph48%30.24 "HgN/A
1:00 PM32 °FPassing clouds.10 mph51%30.24 "HgN/A
Weather by CustomWeather, © 2014

See weather overviewHow to use our weather pages